Location: Chillicothe
(39.7950°N, 93.5520°W)
Time: 12:17:58
(UTC-06:00)

BEESAT - Pass Details

Date: 18 November 2019
Orbit: 700 x 709 km, 98.6° (Epoch: 07 December)

Event Time Altitude Azimuth Distance (km) Brightness Sun altitude
Rises 03:35:44 0° 122° (ESE) 3,080 ? -39.5°
Reaches altitude 10° 03:38:41 10° 103° (ESE) 2,165 ? -38.9°
Maximum altitude 03:41:40 17° 63° (ENE) 1,747 ? -38.4°
Enters shadow 03:41:55 17° 60° (ENE) 1,751 ? -38.3°
